Погода Троицкое

Погода Троицкое : погода сейчас, прогноз погоды и архив. Всё, что Вы хотите узнать о погоде Троицкое!

Хотите узнать прогноз погоды Троицкое? Тогда Вам сюда: Погода Троицкое

Поиск расширенной информации на нашем сайте:

Другие новости

Новости СМИ2

Главная страница сайта

Новости сайта

02.10.2013

Напоминаем, что на нашем новом сайте вы можете получить высокодетализированные прогнозы погоды по пунктам России, СНГ и мира (включающие важные для авиации метеовеличины, такие как направление и скорость ветра, видимость, явления погоды, количество и форма облачности, нижняя и верхняя граница облачности), а также ознакомиться с разнообразными материалами по авиационной метеорологии и подборкой полезных ссылок на эту тему.

Сайт Метеоцентр.Азия посвящён разработке технологий оптимизации авиаметеорологического обслуживания, включая проектирование и перспективное создание нескольких автоматизированных авиаметеорологических систем:
- система выпуска высокодетальных прогностических карт явлений погоды для нижнего воздушного пространства по России и ближнему зарубежью;
- система верификации прогнозов TAF (выпускаемых синоптиками официальных АМСГ РФ и ближнего зарубежья) и AUTOTAF (выпускаемых сайтом Метеоцентр.Азия) - выявление ошибок, онлайн-сопоставление с фактической погодой METAR, автоматическое внесение коррективов в прогнозы при резком отклонении фактической погоды от прогноза, подсчёт оправдываемости прогнозов по элементам и в целом;
- система обработки, анализа и отображения авиаметеорологической информации для применения провайдерами метеорологической информации.


Погода Троицкое - сегодня

Время (UTC), дата Ветер
(°,м/с) 
Видим.   Явления Облачность Т
(°С)
Тd
(°С)
f(%) Тe
(°С)
Pmin
(гПа)
dP
(гПа)
Po
(мм)
O2
(г/м3)
Тmin Tmax R s Состояние
почвы
00 25.05.17 090 (В) 10 км  слаб. ливневой дождь  10/10 600 м кучево-дожд. 
[Cb cap]
+9.3 +7 86 +10  1012  1.2  756  293           
03 25.05.17 070 (В) 20000 м  {ливн. осадки}  10/10 600 м кучево-дожд. 
[Cb cap]
+11.9 +6.7 70 +12  1012.4  0.4  756  291           
06 25.05.17 070 (В) 20000 м  {ливн. осадки}  8/8 600 м кучево-дожд. 
[Cb cap]
+13.6 +6.8 63 +15  1011.8  -0.5  756  289           
09 25.05.17 300 (СЗ) 20000 м    3/3 600 м 
[Cu hum]
+15.7 +6.8 55 +17  1011.5  -0.3  756  287    +16.5  0.4     
12 25.05.17 220 (ЮЗ) 20000 м    3/3 600 м 
[Sc diur, vesp]
+9.8 +5.4 74 +10  1012.6  1.1  756  293           
15 25.05.17 180 (Ю) 20000 м    ясно 
+4.7 +3.7 93 +4  1012.5  -0.2  756  299           
18 25.05.17 200 (Ю) 20000 м    ясно 
+6 +4.5 90 +5  1011.8  -0.7  756  297           
21 25.05.17 190 (Ю) 20000 м    ясно 
+7.4 +5.1 85 +6  1011.9  0.1  756  296  +4        влажная 
00 26.05.17 210 (ЮЗ) 20000 м    3/0 верхняя 
[Ci fib]
+15.3 +7.3 59 +15  1011.4  -0.4  756  287           
03 26.05.17 240 (ЮЗ) 20000 м    ясно 
+19.5 +5.7 40 +20  1010.3  -1  755  283           
06 26.05.17 240 (ЮЗ) 20000 м    ясно 
+21.9 +6.4 37 +22  1008.3  -1.9  753  280           
09 26.05.17 210 (ЮЗ) 20000 м    ясно 
+21.7 +6.3 37 +22  1007.2  -1.1  753  280    +22.3       
12 26.05.17 180 (Ю) 20000 м    ясно 
+13.4 +7.7 68 +14  1008.2  0.9  753  288           
15 26.05.17 190 (Ю) 20000 м    ясно 
+11.9 +7.6 75 +11  1008.6  0.4  754  290           
18 26.05.17 180 (Ю) 20000 м    ясно 
+10.7 +6.8 77 +10  1008.3  -0.4  753  291           
00 27.05.17 200 (Ю) 20000 м    ясно 
+20.4 +8.2 45 +20  1009.1  0.2  754  281           
03 27.05.17 240 (ЮЗ) 20000 м    ясно 
+24.9 +4 26 +25  1007.9  -1.2  753  277           
06 27.05.17 210 (ЮЗ) 20000 м    ясно 
+25.9 +3.9 24 +26  1005.8  -2.1  752  276           
09 27.05.17 240 (ЮЗ) 20000 м    ясно 
+25.2 +1.6 21 +25  1004.6  -1.2  751  277    +26.8       
12 27.05.17 190 (Ю) 20000 м    ясно 
+12.3 +8.3 77 +13  1004.8  751  288           
15 27.05.17 190 (Ю) 20000 м    ясно 
+12.5 +6.5 67 +12  1004.7  0.1  751  288           
18 27.05.17 190 (Ю) 20000 м    ясно 
+12 +5.1 63 +11  1004  -0.8  750  289           
00 28.05.17 190 (Ю) 20000 м    ясно 
+21.6 +8.4 43 +22  1003.1  -0.6  749  278           
03 28.05.17 230 (ЮЗ) 20000 м    ясно 
+26 +6.6 29 +26  1001.1  -1.9  748  274           
06 28.05.17 240 (ЮЗ) 20000 м    ясно 
+26.9 +6.6 27 +27  998.5  -2.6  746  273           
Время (UTC), дата Ветер
(°,м/с) 
Видим.   Явления Облачность Т
(°С)
Тd
(°С)
f(%) Тe
(°С)
Pmin
(гПа)
dP
(гПа)
Po
(мм)
O2
(г/м3)
Тmin Tmax R s Состояние
почвы

Для получения пояснительной информации подведите курсор к названию столбца.

ПОГОДА Троицкое - архив

Всё, что Вы хотите узнать о погоде Троицкое - удобно и подробно!

Выберите нужную дату (начиная с 1 января 2015* года) и нажмите кнопку "Найти".
Будут отображены архивные сводки погоды по пункту Троицкое, начиная с указанной даты.


Отображать данные в формате CSV (для использования в таблицах Excel)


Внимание! Наш архив погоды предназначен исключительно для личного некоммерческого использования в познавательных целях. Если Вам необходимы официальные справки о состоянии погоды (для производственных, юридических, коммерческих и т.п. целей), обращайтесь в органы Росгидромета.

*Примечание: данная дата относится к архиву по метеостанциям СССР (Россия, СНГ, Балтия).
Архив по метеостанциям Зарубежной Европы и Азии (кроме Китая) хранится 10 дней, по другим регионам земного шара (Китай, Африка, Америка, Австралия, Океания) - 1 день.

Троицкое - район местоположения метеостанции


Название, широта, долгота, высота метеостанции:
Троицкое 49.4°ш. 136.6°д. 33 м над ур. моря [Российская Федерация]

Дополнительная информация

В oтличие oт бoльшинства пoгoдных сайтoв мы публикуем пoдрoбную метеoинфoрмацию в детальнoм прoфессиoнальнoм фoрмате.

Характеристики температуры и влажнoсти вoздуха измеряются на высoте 2 м в тени вдали oт зданий и деревьев.
Скoрoсть ветра измеряется на высoте 10 м (на урoвне рoста челoвека скoрoсть ветра ниже в 1.5-2 раза). Если метеoстанция нахoдится в гoрoде или в лесу, тo скoрoсть ветра занижена на 2-4 м/с пo сравнению с oткрытым местoм. Скoрoсть ветра над акватoриями крупных рек и oзёр, а также на вершинах хoлмoв на 2-5 м/с выше, чем в oбычных услoвиях.
Атмoсфернoе давление в разных тoчках местнoсти мoжет значительнo oтличаться oт давления на метеoстанции, в зависимoсти oт услoвий рельефа (при пoдъёме на 10 м давление пoнижается примернo на 1 мм рт.ст.).